Regional Weather Roundup
Issued by NWS

Home | Current Version | Previous Version | Text Only | Print | Product List | Glossary On
Versions: 1 2 3 4 5 6 7 8 9 10 11 12 13 14 15 16 17 18 19 20 21 22 23 24 25 26 27 28 29 30 31 32 33 34 35 36 37 38 39 40 41 42 43 44 45 46 47 48 49 50
000
ASUS44 KLIX 310809
RWRLA
LOUISIANA WEATHER ROUNDUP
NATIONAL WEATHER SERVICE NEW ORLEANS LA
300 AM CDT WED AUG 31 2016

NOTE: "FAIR" INDICATES FEW OR NO CLOUDS BELOW 12,000 FEET WITH NO
      SIGNIFICANT WEATHER AND/OR OBSTRUCTIONS TO VISIBILITY.
      SKY/WX - SKY CONDITION AND SIGNIFICANT WEATHER.
      TMP - AIR TEMPERATURE.    DP   - DEWPOINT TEMPERATURE.
      RH  - RELATIVE HUMIDITY.  PRES - PRESSURE.
      HX  - HEAT INDEX.         WCI  - WIND CHILL INDEX.

*  THESE STATIONS ARE NOT NWS OR FAA STATIONS AND ARE NOT UNDER
   NWS QUALITY CONTROL.

LAZ040-048-061>063-065-066-069-310900-
SOUTHEAST LOUISIANA

CITY           SKY/WX    TMP DP  RH WIND       PRES   REMARKS
N.O. AUDUBON     N/A     81  78  90 MISG        N/A
N.O. INTL ARPT PTCLDY    84  78  82 N6        29.89S HX  95
N.O. LAKEFRONT CLEAR     83  78  85 N10       29.89S
N.O. DOWNTOWN* FAIR      83  78  85 N3        29.89F
RESERVE*       FAIR      80  78  94 CALM      29.90S
SLIDELL        CLEAR     76  74  93 N3        29.89S
BATON ROUGE    CLEAR     77  75  93 N3        29.91S
BOOTHVILLE     NOT AVBL
BELLE CHASSE   CLEAR     76  75  97 CALM      29.88S
BOGALUSA*      FAIR      76  72  88 CALM      29.93S
GALLIANO*      SUNNY    N/A N/A N/A N5        29.88S
NEW ROADS*     FAIR      75  74  97 MISG      29.92S
GONZALES*      FAIR      76  76 100 CALM      29.90R
HAMMOND*       CLEAR     77  72  83 NE6       29.91S
HOUMA*         CLEAR     76  75  98 N5        29.89S
PORT FOURCHON* SUNNY     82  77  83 N8        29.87S

$$

LAZ041-044-053-054-310900-
SOUTHWEST LOUISIANA

CITY           SKY/WX    TMP DP  RH WIND       PRES   REMARKS
LAKE CHARLES   PTCLDY    78  76  93 CALM      29.91F
LAFAYETTE      CLEAR     79  74  84 N3        29.91S
PATTERSON      CLEAR     77  75  93 CALM      29.90S
SALT POINT       N/A     78  75  90 N3        29.88S
NEW IBERIA     CLEAR     76  73  91 N5        29.91F
CHENAULT AIRPK PTCLDY    77  75  93 CALM      29.92S

$$

LAZ027-028-310900-
CENTRAL LOUISIANA

CITY           SKY/WX    TMP DP  RH WIND       PRES   REMARKS
FORT POLK      CLEAR     78  74  88 VRB6      29.93F
ALEXANDRIA INT PTCLDY    75  75 100 W5        29.92S FOG
ALEXANDRIA     CLEAR     75  75 100 CALM      29.94S

$$

LAZ001-002-310900-
NORTHWEST LOUISIANA

CITY           SKY/WX    TMP DP  RH WIND       PRES   REMARKS
SHREVEPORT     CLEAR     80  76  87 N6        29.97S
BARKSDALE AFB  CLEAR     77  77 100 N2        29.97S
DTN SHREVEPORT CLEAR     78  74  87 CALM      29.97F

$$

LAZ014-016-310900-
NORTHEAST LOUISIANA

CITY           SKY/WX    TMP DP  RH WIND       PRES   REMARKS
MONROE         CLEAR     77  75  93 N3        29.97S
TALLULAH       CLEAR     76  74  93 N3        29.95S

$$




USA.gov is the U.S. government's official web portal to all federal, state and local government web resources and services.